Terminal Aerodrome Forecast
Issued by NWS

Home | Current Version | Previous Version | Text Only | Print | Product List | Glossary On
Versions: 1 2 3 4 5 6 7 8 9 10 11 12 13 14 15 16 17 18 19 20 21 22 23 24 25
000
FTUS45 KRIW 060500
TAFCPR
TAF
KCPR 060529Z 0606/0706 08008KT P6SM SCT080
     FM061200 36010KT P6SM VCSH BKN030
     FM061600 35015G25KT P6SM -SHRA BKN018
     FM070100 35011KT P6SM VCSH BKN026=

USA.gov is the U.S. government's official web portal to all federal, state and local government web resources and services.